When you browse on this site, cookies collect data to enhance your experience and personalize the content and advertising you see.
Visit our Privacy Policy to learn more. By continuing to use the site, you agree to this use of cookies and data.

Hourly Weather Santa Fe

Today, 23 September, Wednesday

Time Temperature Precipitation Wind Pressure Humidity
00:00 +12°C° 0 mm 3 mps 763 mmHg 77%
01:00 +11°C° 0 mm 3 mps 762 mmHg 79%
02:00 +12°C° 0 mm 2 mps 762 mmHg 81%
03:00 +12°C° 0 mm 2 mps 762 mmHg 84%
04:00 +10°C° 0 mm 2 mps 762 mmHg 87%
05:00 +10°C° 0 mm 2 mps 762 mmHg 90%
06:00 +13°C° 0 mm 2 mps 763 mmHg 83%
07:00 +13°C° 0 mm 3 mps 763 mmHg 77%
08:00 +16°C° 0 mm 3 mps 764 mmHg 70%
09:00 +18°C° 0 mm 2 mps 763 mmHg 61%
10:00 +21°C° 0 mm 2 mps 763 mmHg 53%
11:00 +24°C° 0 mm 2 mps 763 mmHg 44%
12:00 +25°C° 0 mm 2 mps 762 mmHg 41%
13:00 +26°C° 0 mm 2 mps 762 mmHg 38%
14:00 +28°C° 0 mm 2 mps 761 mmHg 35%
15:00 +27°C° 0 mm 2 mps 761 mmHg 40%
16:00 +26°C° 0 mm 2 mps 760 mmHg 44%
17:00 +25°C° 0 mm 2 mps 760 mmHg 48%
18:00 +22°C° 0 mm 3 mps 760 mmHg 54%
19:00 +20°C° 0 mm 3 mps 761 mmHg 59%
20:00 +19°C° 0 mm 3 mps 761 mmHg 65%
21:00 +18°C° 0 mm 3 mps 761 mmHg 68%
22:00 +17°C° 0 mm 3 mps 761 mmHg 71%
23:00 +17°C° 0 mm 3 mps 761 mmHg 73%

Tomorrow, 24 September, Thursday

Time Temperature Precipitation Wind Pressure Humidity
00:00 +17°C° 0 mm 3 mps 760 mmHg 75%
01:00 +16°C° 0 mm 3 mps 760 mmHg 76%
02:00 +16°C° 0 mm 3 mps 760 mmHg 78%
03:00 +16°C° 0 mm 3 mps 760 mmHg 80%
04:00 +16°C° 0 mm 3 mps 760 mmHg 83%
05:00 +14°C° 0 mm 3 mps 759 mmHg 85%
06:00 +17°C° 0 mm 3 mps 760 mmHg 81%
07:00 +18°C° 0 mm 3 mps 760 mmHg 76%
08:00 +20°C° 0 mm 4 mps 760 mmHg 72%
09:00 +22°C° 0 mm 4 mps 760 mmHg 67%
10:00 +26°C° 0 mm 4 mps 759 mmHg 62%
11:00 +28°C° 0 mm 4 mps 759 mmHg 57%
12:00 +29°C° 0 mm 4 mps 758 mmHg 54%
13:00 +30°C° 0 mm 4 mps 757 mmHg 50%
14:00 +32°C° 0 mm 4 mps 757 mmHg 47%
15:00 +32°C° 0 mm 4 mps 756 mmHg 50%
16:00 +30°C° 0 mm 3 mps 756 mmHg 53%
17:00 +30°C° 0 mm 3 mps 756 mmHg 56%
18:00 +28°C° 0 mm 4 mps 756 mmHg 61%
19:00 +26°C° 0 mm 4 mps 756 mmHg 67%
20:00 +25°C° 0 mm 4 mps 756 mmHg 73%
21:00 +23°C° 0 mm 4 mps 756 mmHg 74%
22:00 +23°C° 0 mm 4 mps 757 mmHg 75%
23:00 +22°C° 0 mm 4 mps 757 mmHg 76%

Day after tomorrow, 25 September, Friday

Time Temperature Precipitation Wind Pressure Humidity
00:00 +23°C° 0 mm 5 mps 756 mmHg 73%
01:00 +23°C° 0 mm 5 mps 756 mmHg 70%
02:00 +23°C° 0 mm 5 mps 755 mmHg 67%
03:00 +23°C° 0 mm 5 mps 755 mmHg 67%
04:00 +23°C° 0 mm 5 mps 755 mmHg 67%
05:00 +23°C° 0 mm 4 mps 755 mmHg 66%
06:00 +23°C° 0.1 mm 5 mps 755 mmHg 65%
07:00 +25°C° 0.1 mm 5 mps 755 mmHg 64%
08:00 +24°C° 0.1 mm 6 mps 755 mmHg 63%
09:00 +26°C° 0 mm 6 mps 755 mmHg 60%
10:00 +28°C° 0 mm 5 mps 754 mmHg 57%
11:00 +29°C° 0 mm 5 mps 754 mmHg 54%
12:00 +28°C° 0.1 mm 5 mps 753 mmHg 59%
13:00 +27°C° 0.1 mm 4 mps 752 mmHg 65%
14:00 +26°C° 0.1 mm 4 mps 752 mmHg 70%
15:00 +26°C° 0.4 mm 4 mps 751 mmHg 73%
16:00 +26°C° 0.4 mm 3 mps 751 mmHg 76%
17:00 +26°C° 0.4 mm 3 mps 751 mmHg 79%
18:00 +25°C° 0.5 mm 3 mps 751 mmHg 83%
19:00 +24°C° 0.5 mm 3 mps 751 mmHg 86%
20:00 +22°C° 0.5 mm 3 mps 751 mmHg 90%
21:00 +22°C° 1.1 mm 3 mps 751 mmHg 91%
22:00 +22°C° 1.1 mm 4 mps 751 mmHg 92%
23:00 +22°C° 1.1 mm 4 mps 751 mmHg 92%

26 September, Saturday

Time Temperature Precipitation Wind Pressure Humidity
00:00 +22°C° 0.6 mm 4 mps 751 mmHg 93%
01:00 +22°C° 0.6 mm 4 mps 751 mmHg 94%
02:00 +22°C° 0.6 mm 5 mps 751 mmHg 95%
03:00 +22°C° 0.4 mm 4 mps 751 mmHg 96%
04:00 +21°C° 0.4 mm 3 mps 751 mmHg 96%
05:00 +21°C° 0.4 mm 3 mps 752 mmHg 97%
06:00 +21°C° 0.8 mm 3 mps 752 mmHg 96%
07:00 +22°C° 0.8 mm 3 mps 752 mmHg 95%
08:00 +22°C° 0.8 mm 3 mps 753 mmHg 94%
09:00 +23°C° 0.8 mm 2 mps 753 mmHg 93%
10:00 +23°C° 0.8 mm 2 mps 753 mmHg 92%
11:00 +24°C° 0.8 mm 1 mps 753 mmHg 91%
12:00 +23°C° 0.9 mm 2 mps 753 mmHg 92%
13:00 +22°C° 0.9 mm 3 mps 753 mmHg 94%
14:00 +21°C° 0.9 mm 5 mps 753 mmHg 95%
15:00 +21°C° 0.3 mm 5 mps 753 mmHg 94%
16:00 +21°C° 0.3 mm 5 mps 753 mmHg 92%
17:00 +21°C° 0.3 mm 5 mps 753 mmHg 91%
18:00 +21°C° 0 mm 6 mps 753 mmHg 91%
19:00 +20°C° 0 mm 6 mps 754 mmHg 90%
20:00 +20°C° 0 mm 6 mps 754 mmHg 89%
21:00 +19°C° 0 mm 6 mps 755 mmHg 89%
22:00 +19°C° 0 mm 5 mps 755 mmHg 90%
23:00 +17°C° 0 mm 5 mps 755 mmHg 90%

27 September, Sunday

Time Temperature Precipitation Wind Pressure Humidity
00:00 +16°C° 0 mm 5 mps 755 mmHg 89%
01:00 +17°C° 0 mm 4 mps 755 mmHg 89%
02:00 +15°C° 0 mm 4 mps 755 mmHg 89%
03:00 +14°C° 0 mm 4 mps 756 mmHg 90%
04:00 +14°C° 0 mm 4 mps 756 mmHg 92%
05:00 +13°C° 0 mm 4 mps 756 mmHg 93%
06:00 +14°C° 0 mm 4 mps 757 mmHg 87%
07:00 +15°C° 0 mm 4 mps 757 mmHg 81%
08:00 +17°C° 0 mm 4 mps 758 mmHg 75%
09:00 +19°C° 0 mm 4 mps 758 mmHg 67%
10:00 +21°C° 0 mm 4 mps 758 mmHg 59%
11:00 +23°C° 0 mm 4 mps 758 mmHg 50%
12:00 +25°C° 0 mm 4 mps 757 mmHg 47%
13:00 +25°C° 0 mm 4 mps 757 mmHg 44%
14:00 +26°C° 0 mm 4 mps 756 mmHg 41%
15:00 +25°C° 0 mm 4 mps 756 mmHg 45%
16:00 +25°C° 0 mm 3 mps 756 mmHg 48%
17:00 +24°C° 0 mm 2 mps 756 mmHg 51%
18:00 +21°C° 0 mm 2 mps 756 mmHg 53%
19:00 +20°C° 0 mm 1 mps 756 mmHg 55%
20:00 +18°C° 0 mm 1 mps 757 mmHg 57%
21:00 +18°C° 0 mm 1 mps 757 mmHg 61%
22:00 +16°C° 0 mm 2 mps 757 mmHg 66%
23:00 +16°C° 0 mm 2 mps 757 mmHg 70%

28 September, Monday

Time Temperature Precipitation Wind Pressure Humidity
00:00 +15°C° 0 mm 2 mps 757 mmHg 73%
01:00 +15°C° 0 mm 2 mps 757 mmHg 75%
02:00 +15°C° 0 mm 2 mps 757 mmHg 78%
03:00 +14°C° 0 mm 2 mps 757 mmHg 80%
04:00 +14°C° 0 mm 2 mps 757 mmHg 82%
05:00 +13°C° 0 mm 3 mps 757 mmHg 84%
06:00 +14°C° 0 mm 3 mps 757 mmHg 78%
07:00 +17°C° 0 mm 4 mps 757 mmHg 71%
08:00 +19°C° 0 mm 4 mps 757 mmHg 65%
09:00 +20°C° 0 mm 5 mps 757 mmHg 58%
10:00 +22°C° 0 mm 5 mps 757 mmHg 52%
11:00 +25°C° 0 mm 5 mps 756 mmHg 45%
12:00 +26°C° 0 mm 5 mps 755 mmHg 43%
13:00 +26°C° 0 mm 5 mps 754 mmHg 42%
14:00 +27°C° 0 mm 5 mps 754 mmHg 40%
15:00 +26°C° 0 mm 5 mps 753 mmHg 44%
16:00 +25°C° 0 mm 4 mps 753 mmHg 48%
17:00 +25°C° 0 mm 4 mps 752 mmHg 53%
18:00 +22°C° 0 mm 4 mps 752 mmHg 56%
19:00 +21°C° 0 mm 4 mps 752 mmHg 60%
20:00 +19°C° 0 mm 4 mps 753 mmHg 64%
21:00 +19°C° 0 mm 4 mps 753 mmHg 67%
22:00 +18°C° 0 mm 4 mps 753 mmHg 70%
23:00 +18°C° 0 mm 3 mps 753 mmHg 73%
Show more